Miscellaneous Local Product
Issued by NWS North Platte, NE

Home | Current Version | Previous Version | Graphics & Text | Print | Product List | Glossary On
Versions: 1 2 3 4 5 6 7 8 9 10 11 12 13 14 15 16 17 18 19 20 21 22 23 24 25 26 27 28 29 30 31 32 33 34 35 36 37 38 39 40 41 42 43 44 45 46 47 48 49 50
000
AXUS43 KLBF 152310
MISLBF


WESTERN AND NORTH CENTRAL NEBRASKA HOURLY WEATHER ROUNDUP
NATIONAL WEATHER SERVICE NORTH PLATTE NE
500 PM CST MON JAN 15 2018

NOTE: "FAIR" INDICATES FEW OR NO CLOUDS BELOW 12,000 FEET WITH NO
SIGNIFICANT WEATHER AND/OR OBSTRUCTIONS TO VISIBILITY.

NOTE: STATIONS NOT REPORTING VARIABLES SUCH AS SKY/WEATHER OR
PRESSURE ARE PROVIDED BY RAWS AND APRS NETWORKS AND ARE NOT UNDER
NATIONAL WEATHER SERVICE QUALITY CONTROL.

...OBSERVATIONS IN AND NEAR THE EASTERN PANHANDLE OF NEBRASKA...

CITY           SKY/WX    TMP DP  RH WIND       PRES   REMARKS
PINE RIDGE     CLEAR      4  -6  63 N12G22    30.66R WCI -12
GORDON         FAIR       2  -6  67 N17G24    30.61R WCI -18
CHADRON        CLEAR      9  -3  58 N8        30.66S WCI  -3
ALLIANCE       CLEAR      4  -4  69 N12       30.57R WCI -12
SIDNEY         CLEAR      9  -1  64 N13       30.52R WCI  -7
CRESCENT LAKE    N/A      4  -6  63 N16G23      N/A  WCI -15
$$

...OBSERVATIONS IN NORTHERN NEBRASKA AND FAR SOUTHERN SOUTH DAKOTA...

CITY           SKY/WX    TMP DP  RH WIND       PRES   REMARKS
WINNER         MOCLDY     4  -8  57 N25G37    30.68R WCI -19
VALENTINE      CLEAR      3  -8  60 NW25G33   30.63R WCI -20
AINSWORTH      PTCLDY     2  -6  68 NW16G26   30.62R WCI -17
O`NEILL        CLOUDY     1  -4  81 NW20G25   30.62R FOG     WCI -21
THEDFORD       CLEAR      4  -5  65 NW22G28   30.60S WCI -18
BROKEN BOW     CLEAR      4  -7  60 N16       30.60R WCI -15
ORD            CLOUDY     3  -6  66 NW22G32   30.62S WCI -19
ALBION         CLOUDY     3  -5  71 NW23      30.61S HAZE    WCI -20
VALENTINE NWR    N/A      2 -10  58 NW20G30     N/A  WCI -19
HALSEY           N/A      3 -10  54 NW13G26     N/A  WCI -14
BUTTE            N/A      0  -6  74 NW20G28     N/A  WCI -22
CHAMBERS         N/A      1 -10  60 W7G14       N/A  WCI -12
EWING            N/A      0  -4  82 N17G25      N/A  WCI -20
$$

...OBSERVATIONS IN SOUTHWEST NEBRASKA AND FAR NORTHEAST COLORADO...

CITY           SKY/WX    TMP DP  RH WIND       PRES   REMARKS
WRAY           FAIR      14   0  52 MISG      30.57R
HOLYOKE        FAIR      14   1  57 N18G25    30.56S WCI  -3
IMPERIAL       CLEAR     10  -2  58 N23       30.58R WCI -10
OGALLALA       CLEAR     11  -2  56 NW16G23   30.60R WCI  -6
NORTH PLATTE   CLEAR      7  -7  52 NW18G26   30.62R WCI -12
MCCOOK         CLEAR     10  -4  53 N18       30.62R WCI  -8
LEXINGTON      CLEAR      7  -4  59 NW24G31   30.62R WCI -14
STAPLETON        N/A      2  -6  67 NW5G14      N/A  WCI  -7
GOTHENBURG       N/A      7  -4  58 NW14        N/A  WCI -10
CALLAWAY         N/A      3  -5  69 NW20        N/A  WCI -18
$$

...OBSERVATIONS IN CENTRAL LINCOLN COUNTY AREA...

CITY           SKY/WX    TMP DP  RH WIND       PRES   REMARKS
N.P. AIRPORT   CLEAR      7  -7  52 NW18G26   30.62R WCI -12
N.P. DOWNTOWN    N/A      5  -6  60 NW8G16      N/A  WCI  -8
N.P. SOUTHEAST   N/A      5  -7  58 N12G24      N/A  WCI -11
N.P. HILLCREST   N/A      6  -5  61 NW17G24     N/A  WCI -13
$$

...SOME OBSERVATIONS FROM AROUND THE REGION...

CITY           SKY/WX    TMP DP  RH WIND       PRES   REMARKS
DENVER         MOCLDY    18   3  52 NE13      30.45R WCI   5
BERTHOUD PASS  CLOUDY     7  -4  61 NW29G37   30.14R WCI -16
GRAND JUNCTION SUNNY     47  23  38 NE10      30.27R
LARAMIE        CLEAR     19  -2  39 N17       30.34R WCI   4
CHEYENNE       CLEAR     11  -2  56 N21G26    30.39R WCI  -8
CASPER         CLEAR     16   5  62 CALM      30.49S
BISMARCK       CLEAR     -5 -15  62 NW15      30.83R WCI -26
RAPID CITY     CLEAR      2  -7  66 N16       30.67R WCI -18
PIERRE         CLEAR      1 -11  57 NW24G31   30.74R WCI -22
SIOUX FALLS    PTCLDY    -3 -11  68 NW21      30.59R WCI -26
OMAHA          MOCLDY     2 -10  57 NW22G33   30.63R WCI -20
GRAND ISLAND   PTCLDY     4  -6  63 NW25G35   30.62R WCI -19
SCOTTSBLUFF    CLEAR     13  -1  54 N13       30.57R WCI  -2
KANSAS CITY    MOCLDY     6  -4  63 NW17G24   30.57R WCI -13
HILL CITY      CLEAR     13  -5  44 N17G28    30.64R WCI  -4
WICHITA        CLOUDY    15   6  67 N16G24    30.61R WCI  -1
DODGE CITY     PTCLDY    16  -2  45 N21G31    30.56R WCI  -1
OKLAHOMA CITY  CLOUDY    22   2  42 N22       30.56R WCI   6
DALLAS         CLOUDY    47  31  53 N26G35    30.32R
AMARILLO       CLOUDY    23  10  57 N21       30.47R WCI   8
$$




USA.gov is the U.S. government's official web portal to all federal, state and local government web resources and services.